Location: Unspecified
(0.0000°N, 0.0000°E)
Time: 12:33:15
(UTC+00:00)

Tiangong 2 - Visible Passes

Search period start: 30 March 2017 00:00
Search period end: 09 April 2017 00:00
Orbit: 374 x 383 km, 42.8° (Epoch: 28 March)

Date Brightness Start Highest point End Pass type
(mag) Time Alt. Az. Time Alt. Az. Time Alt. Az.
30 Mar 3.5 18:54:00 10° W 18:56:29 22° NW 18:58:58 10° N visible
01 Apr 1.6 05:21:12 10° NW 05:24:15 59° NE 05:27:21 10° SE visible
02 Apr 3.6 04:22:43 19° NE 04:22:49 19° NE 04:25:07 10° E visible
03 Apr 1.3 04:57:31 45° WSW 04:57:46 46° SW 05:00:48 10° SSE visible
